Regional Weather Roundup
Issued by NWS

Home | Current Version | Previous Version | Text Only | Print | Product List | Glossary Off
Versions: 1 2 3 4 5 6 7 8 9 10 11 12 13 14 15 16 17 18 19 20 21 22 23 24 25 26 27 28

000
ASUS45 KPSR 280210
RWRAZ

ARIZONA HOURLY REGIONAL WEATHER ROUNDUP
NATIONAL WEATHER SERVICE PHOENIX AZ
700 PM MST WED APR 27 2016

NOTE: FAIR INDICATES FEW OR NO CLOUDS BELOW 12,000 FEET WITH NO
SIGNIFICANT WEATHER AND/OR OBSTRUCTIONS TO VISIBILITY.

AZZ001>003-036-280300-
NORTHWEST ARIZONA

CITY           SKY/WX    TMP DP  RH WIND       PRES   REMARKS
BULLHEAD CITY  MOCLDY    81  27  13 S14       29.55F
KINGMAN        MOCLDY    65  24  21 S14       29.66F
$$

AZZ004>008-015-016-018-280300-
NORTH CENTRAL ARIZONA

CITY           SKY/WX    TMP DP  RH WIND       PRES   REMARKS
GRAND CANYON   LGT RAIN  48  30  49 SW8       29.80S
WILLIAMS       CLOUDY    50  27  40 SW12G30   29.87R
PRESCOTT       MOCLDY    59  25  27 SW10      29.76S
FLAGSTAFF      MOCLDY    48  25  40 SW14G37   29.81S
PAYSON         MOCLDY    59  19  21 SW9       29.81S
PAGE           CLOUDY    55  39  54 W7        29.72R
$$

AZZ009>014-017-280300-
NORTHEAST ARIZONA

CITY           SKY/WX    TMP DP  RH WIND       PRES   REMARKS
WINSLOW        PTCLDY    62  22  21 SW21      29.74R
SAINT JOHNS    MOCLDY    61  17  18 SW17G24   29.77R
WINDOW ROCK    CLOUDY    57  21  24 SW16G23   29.78S
SHOW LOW       PTCLDY    54  14  20 SW10G20   29.82S
$$

AZZ023-280300-
GREATER PHOENIX AREA

CITY           SKY/WX    TMP DP  RH WIND       PRES   REMARKS
PHOENIX        MOCLDY    81  25  12 W10       29.61S
BUCKEYE        PTCLDY    79  28  15 SW13      29.63S
GLENDALE       PTCLDY    81  27  13 S12       29.63S
LUKE AFB       PTCLDY    80  28  14 SW12      29.61S
DEER VALLEY    PTCLDY    77  25  14 SW12      29.63F
SCOTTSDALE     PTCLDY    78  24  13 NW6       29.65S
MESA-FALCON    PTCLDY   N/A N/A N/A S7        29.61F
MESA-GATEWAY   PTCLDY    79  27  14 W7        29.64
CHANDLER       PTCLDY    81  23  12 SW7       29.62F
$$

AZZ027-028-280300-
SOUTHWEST MARICOPA COUNTY AND PINAL COUNTY

CITY           SKY/WX    TMP DP  RH WIND       PRES   REMARKS
CASA GRANDE    CLEAR     79  27  14 W3        29.66S
GILA BEND      PTCLDY    79  18  10 SW22      29.62R
$$

AZZ503-504-507>509-280300-
SOUTHEAST ARIZONA

CITY           SKY/WX    TMP DP  RH WIND       PRES   REMARKS
TUCSON         CLOUDY    78  15   9 SW10      29.72S
DAVIS-MONTHAN  MOCLDY    76  15  10 W8        29.70S
RYAN FIELD     CLEAR     79  25  13 W16       29.72R
NOGALES        CLEAR     70  19  14 SW9       29.78S
SIERRA VISTA   CLEAR     68  15  13 S9        29.82R
DOUGLAS        CLEAR     72  14  11 SW22      29.77R
SAFFORD        CLOUDY    73  18  12 NW14      29.69R
$$

AZZ020-021-025-026-031-280300-
SOUTHWEST ARIZONA

CITY           SKY/WX    TMP DP  RH WIND       PRES   REMARKS
YUMA           MOCLDY    81  43  26 S14       29.61F
$$

CAZ031-033-041-043-047-048-061-280300-
SOUTHERN CALIFORNIA

CITY           SKY/WX    TMP DP  RH WIND       PRES   REMARKS
DOWNTOWN L.A.  PTCLDY    63  52  67 VRB5      29.74F
L.A. AIRPORT   PTCLDY    62  52  69 W24G32    29.74F
SAN DIEGO      MOCLDY    63  50  63 W8        29.84F
BURBANK        CLEAR     64  49  57 E15       29.73F
ONTARIO        PTCLDY    62  42  47 SW17      29.75F
RIVERSIDE      PTCLDY    65  41  41 W14G21    29.75F
PALM SPRINGS   PTCLDY    76  38  25 W20G38    29.64R
EL CENTRO NAS  PTCLDY    76  37  24 W25       29.65R
IMPERIAL       PTCLDY    77  39  25 W20G32    29.61S
BLYTHE         MOCLDY    82  35  18 SW16      29.57F
NEEDLES        PTCLDY    81  28  14 SW15      29.54F
$$

NVZ020-UTZ003-280300-
SOUTHERN NEVADA-UTAH

CITY           SKY/WX    TMP DP  RH WIND       PRES   REMARKS
LAS VEGAS      MOCLDY    68  31  25 NW13      29.57F
SALT LAKE CITY CLOUDY    54  40  59 NW10      29.72S
$$

NMZ009-TXZ055-280300-
NEW MEXICO-WEST TEXAS

CITY           SKY/WX    TMP DP  RH WIND       PRES   REMARKS
ALBUQUERQUE    MOCLDY    67  21  17 W6        29.74R
EL PASO        PTCLDY    74  13   9 SE12      29.73S
$$


........................KEY........................
SKY/WX - SKY CONDITION/WEATHER
TMP    - TEMPERATURE IN FAHRENHEIT
DP     - DEW POINT IN FAHRENHEIT
RH     - RELATIVE HUMIDITY IN PERCENT
WIND   - DIRECTION AND SPEED IN MILES PER HOUR (MPH)
VRB    - VARIABLE WIND DIRECTION
PRES   - MEAN SEA LEVEL PRESSURE IN INCHES OF MERCURY
         F - FALLING PRESSURE   R - RISING PRESSURE
         S - STEADY PRESSURE
VSB    - VISIBILITY IN MILES
HX     - HEAT INDEX IN FAHRENHEIT
WCI    - WIND CHILL INDEX IN FAHRENHEIT
TC     - TEMPERATURE IN CELSIUS WHICH IS ALSO KNOWN AS
         TEMPERATURE IN CENTIGRADE
AFB    - AIR FORCE BASE
         LUKE AFB IS LUKE AIR FORCE BASE
         DAVIS-MONTHAN IS DAVIS-MONTHAN AIR FORCE BASE
NAS    - NAVAL AIR STATION
         EL CENTRO NAS IS EL CENTRO NAVAL AIR STATION
N/A    - NOT AVAILABLE





USA.gov is the U.S. government's official web portal to all federal, state and local government web resources and services.